#timestamp,LO_Frequency,Hit,StdDev 
1704902415.8,286047001.2,N
1704902435.7,286046998.2,N
1704902455.5,286047000.4,N
1704902475.3,286047000.3,N
1704902495.2,286047001.2,N
1704902515.0,286046998.3,N
1704902515.9,286046998.3,N
1704902535.7,286046998.6,N
1704902555.6,286046998.5,N
1704902575.4,286047001.1,N
1704902595.3,286047000.0,N
1704902615.1,286047000.2,N
1704902635.8,286047000.1,N
1704902655.7,286047000.4,N
1704902675.5,286046999.8,N
1704902695.4,286047001.2,N
1704902715.2,286047001.2,N
1704902735.0,286047000.3,N
1704902736.0,286047000.3,N
1704902755.8,286046999.9,N
1704902775.6,286046999.7,N
1704902795.5,286047002.6,N
1704902815.3,286047002.8,N
1704902835.1,286047000.1,N
1704902855.9,286047000.4,N
1704902875.7,286047002.8,N
1704902895.6,286047002.0,N
1704902915.4,286047001.3,N
1704902935.2,286047001.8,N
1704902955.1,286047001.3,N
1704902975.9,286047001.3,N
1704902995.7,286047002.0,N
1704903015.5,286047002.0,N
1704903035.4,286047002.0,N
1704903055.2,286046999.9,N
1704903075.1,286047000.0,N
1704903076.0,286047000.0,N
1704903095.8,286047002.3,N
1704903115.6,286047001.6,N
1704903135.5,286047002.0,N
1704903155.3,286047002.0,N
1704903175.1,286047004.0,Y
1704903195.9,286047000.5,P
1704903215.7,286047000.4,N
1704903235.6,286047000.0,N
1704903255.4,286047001.1,N
1704903275.2,286047000.9,N
1704903295.1,286047002.7,Y
1704903296.0,286047002.7,P
1704903315.8,286046998.1,N
1704903335.7,286046998.1,N
1704903355.5,286047000.3,N
1704903375.4,286047001.1,N
1704903395.2,286046998.8,N
1704903415.0,286047001.2,N
1704903415.9,286047001.2,N
1704903435.8,286046998.4,N
1704903455.6,286046999.6,N
1704903475.4,286046999.1,N
1704903495.3,286046999.5,N
1704903515.1,286046999.4,N
1704903535.9,286046999.1,N
1704903555.7,286046996.8,N
1704903575.5,286046997.8,N
1704903595.4,286046996.5,N
1704903615.2,286046997.3,N
1704903635.0,286046997.3,N
1704903635.9,286046997.3,N
1704903655.8,286046997.4,N
1704903675.6,286046997.5,N
1704903695.5,286046995.4,N
1704903715.3,286046997.2,N
1704903735.1,286046995.0,N
1704903755.9,286046995.4,N
1704903775.7,286046996.7,N
1704903795.5,286046999.5,N
1704903815.4,286046999.4,N
1704903835.2,286046998.7,N
1704903855.1,286046998.7,N
1704903856.0,286046998.7,N
1704903875.8,286046998.2,N
1704903895.6,286046998.4,N
1704903915.5,286046999.4,N
1704903935.3,286046997.1,N
1704903955.1,286046996.9,N
1704903975.9,286046997.7,N
1704903995.7,286046997.1,N
1704904015.6,286046995.4,Y
1704904035.4,286047000.5,P
1704904055.2,286047001.2,N
1704904075.1,286046998.7,N
1704904076.0,286046998.7,N
1704904095.8,286046998.4,N
1704904115.7,286047000.9,N
1704904135.5,286047000.9,N
1704904155.3,286047000.8,N
1704904175.2,286046999.8,N
1704904195.0,286047000.8,N
1704904195.9,286047000.8,N
1704904215.7,286046998.2,N
1704904235.6,286047000.8,N
1704904255.4,286046998.1,N
1704904275.3,286046998.5,N
1704904295.1,286046998.4,N
1704904296.0,286046998.4,N
1704904315.8,286046999.4,N
1704904335.7,286046999.1,N
1704904355.5,286046999.4,N
1704904375.4,286046998.2,N
1704904395.2,286047001.2,N
1704904415.0,286047000.3,N
1704904415.9,286047000.3,N
1704904435.8,286046999.7,N
1704904455.6,286047002.6,N
1704904475.4,286047002.0,N
1704904495.3,286047000.7,N
1704904515.1,286047002.7,N
1704904535.9,286047000.3,N
1704904555.7,286047002.8,N
1704904575.5,286047002.6,N
1704904595.4,286047002.4,N
1704904615.2,286047002.6,N
1704904635.0,286047002.1,N
1704904635.9,286047002.1,N
1704904655.8,286047000.0,N
1704904675.6,286047002.7,N
1704904695.5,286047002.8,N
1704904715.3,286047001.4,N
1704904735.1,286047001.6,N
1704904755.9,286047002.6,N
1704904775.7,286047002.4,N
1704904795.5,286047002.6,N
1704904815.4,286047002.5,N
1704904835.2,286047002.7,N
1704904855.1,286047001.6,N
1704904856.0,286047001.6,N
1704904875.8,286047002.8,N
1704904895.6,286047000.6,N
1704904915.5,286046998.1,N
1704904935.3,286047000.3,N
1704904955.2,286047000.1,N
1704904975.9,286047002.6,N
1704904995.7,286047002.8,N
1704905015.6,286046999.7,N
1704905035.4,286047000.0,N
1704905055.2,286046998.2,N
1704905075.1,286047001.0,N
1704905076.0,286047001.0,N
1704905095.8,286047000.7,N
1704905115.7,286046998.6,N
1704905135.5,286046998.8,N
1704905155.3,286046998.1,N
1704905175.2,286046998.7,N
1704905195.0,286046998.6,N
1704905195.9,286046998.6,N
1704905215.7,286047000.6,N
1704905235.6,286047000.7,N
1704905255.4,286047000.1,N
1704905275.3,286047001.9,N
1704905295.1,286047001.8,N
1704905296.0,286047001.8,N
1704905315.8,286047001.6,N
1704905335.7,286047001.6,N
1704905355.5,286047001.4,N
1704905375.3,286047001.5,N
1704905395.2,286047002.6,N
1704905415.0,286047001.6,N
1704905415.9,286047001.6,N
1704905435.8,286047002.0,N
1704905455.6,286047001.8,N
1704905475.4,286047004.0,N
1704905495.3,286047004.0,N
1704905515.1,286047004.2,N
1704905535.8,286047004.2,N
1704905555.7,286047004.0,N
1704905575.5,286047004.2,N
1704905595.4,286047001.8,N
1704905615.2,286047001.4,N
1704905635.0,286047004.0,N
1704905635.9,286047004.0,N
1704905655.8,286047003.0,N
1704905675.6,286047004.4,N
1704905695.5,286047004.4,N
1704905715.3,286047002.9,N
1704905735.1,286047003.0,N
1704905755.9,286047006.0,Y
1704905775.7,286047002.8,P
1704905795.5,286047002.5,P
1704905815.4,286047001.9,P
1704905835.2,286047004.3,Y
1704905855.1,286047000.4,P
1704905856.0,286047000.4,N
1704905875.8,286046999.8,N
1704905895.6,286047000.0,N
1704905915.5,286047000.6,N
1704905935.3,286047000.0,N
1704905955.2,286047002.8,Y
1704905975.9,286047001.0,P
1704905995.7,286047001.0,P
